默认 日期 大小 文件数 浏览量 最新下载 xml
rod-磁力链接相关资源由用户搜索指令自动获取,结果来源于网络,本站不存储任何资料,亦不承担任何责任,请于24小时内删除,搜索到3604个磁力,用时3ms。
    {"RARBG.txt": 30, "RARBG_DO_NOT_MIRROR.exe": 99, "Hot.Rod.Garage.S04E02.Low-Buck.Speed.Project.HDTV.x264-CRiMSON.mkv": 121594687, "hot.rod.garage.s04e02.low-buck.speed.project.hdtv.x264-crimson.nfo": 475}
创建时间: 2024-10-16 13:57:18 大小:115.96 MB 文件数量:4 热度:3 最近下载:2025-02-26 08:29:02
    {"HR.nfo": 2882, "Hot Rod 2007 DVDRip x264 AAC - SiNDK8.mkv": 1134302213}
创建时间: 2024-10-20 15:49:23 大小:1.06 GB 文件数量:2 热度:2 最近下载:2025-01-24 17:04:02
    {"RARBG.txt": 30, "RARBG_DO_NOT_MIRROR.exe": 99, "hot.rod.garage.s02e06.630.horsepower.chevy.van.ls.swap.720p.web.x264-robots.mkv": 261521616, "hot.rod.garage.s02e06.630.horsepower.chevy.van.ls.swap.720p.web.x264-robots.nfo": 1594}
创建时间: 2024-10-25 16:56:18 大小:249.41 MB 文件数量:4 热度:7 最近下载:2025-09-19 08:43:03
    {"07 Sailing.mp3": 7391085, "03 Baby Jane.mp3": 8012800, "01 Maggie May.mp3": 8396068, "10 Young Turks.mp3": 7680731, "16 Downtown Train.mp3": 7755337, "02 You Wear It Well.mp3": 7312091, "05 I Was Only Joking.mp3": 8171520, "09 You're In My Heart.mp3": ...
创建时间: 2024-10-28 09:17:49 大小:116.62 MB 文件数量:16 热度:6 最近下载:2025-09-19 04:02:23
    {"3 Březnové idy.mkv": 2379408137, "2 Veni, vidi, vici.mkv": 2355984828, "1 Nejvyšší kněz.mkv": 2375977364, "Julius Caesar - The Making of a Dictator.jpg": 72444}
创建时间: 2024-10-28 09:39:53 大小:6.62 GB 文件数量:4 热度:6 最近下载:2025-09-12 13:04:21
    {"_ DOWNLOAD free audiobook version.txt": 1346, "_ uploads will stop, your support is needed, 244 members to go (08.01.2024).txt": 915, "Open_ How Compaq Ended IBM's PC Domination and Helped Invent Modern Computing by Rod Canion.epub": 1757647}
创建时间: 2024-10-30 15:47:32 大小:1.68 MB 文件数量:3 热度:8 最近下载:2025-04-25 05:20:02
    ... ": 40057937, "07 Track07.flac": 32577638, "Rod Stewart - 1986-09-25, Wembley ... (selected songs only).ffp": 350, "Rod Stewart - 1986-09-25, Wembley ... (selected songs only).md5": 401, "Rod Stewart - 1986-09-25, Wembley ...
创建时间: 2024-11-01 19:51:04 大小:196.59 MB 文件数量:11 热度:2 最近下载:2025-02-15 18:33:08
    {"ffp.ffp": 768, "st5.st5": 960, "info.txt": 2623, "ffp text.txt": 768, "st5 text.txt": 960, "Track_01.flac": 5214749, "Track_02.flac": 29331398, "Track_03.flac": 31454654, "Track_04.flac": 46810695, "Track_05.flac": 28064584, "Track_06.flac": 34129847, " ...
创建时间: 2024-11-03 17:07:24 大小:554.1 MB 文件数量:21 热度:23 最近下载:2025-09-17 13:17:13
    {"Cover.jpg": 111016, "00.Info.m3u": 1152, "00.Info.nfo": 3555, "OneHack.us.txt": 133, "07. Passion (Live 1982).flac": 42164240, "17. Sailing (Live 1982).flac": 31915216, "04. Hot Legs (Live 1982).flac": 33960050, "14. Maggie May (Live 1982).flac": ...
创建时间: 2024-11-08 10:34:08 大小:710.7 MB 文件数量:27 热度:2 最近下载:2025-01-12 12:58:04
    ... 1970).flac": 36895607, "10. ROD STEWART & Faces - Gasoline Alley ... 1970).flac": 67711212, "04. ROD STEWART & Faces - Country Comfort ... 1970).flac": 34813247, "03. ROD STEWART & Faces - The Wicked ... 1970).flac": 31226011, "18. ROD STEWART & Faces - Devotion (Bonus ...
创建时间: 2024-11-08 13:37:42 大小:840.13 MB 文件数量:24 热度:6 最近下载:2025-03-18 03:20:02
    ... Remaster).flac": 36319453, "12. ROD STEWART - Mandolin Wind (Live ... Remaster).flac": 29969445, "16. ROD STEWART - Gasoline Alley (Live ... Remaster).flac": 27901091, "13. ROD STEWART - Highgate Shuffle (Live ... ).flac": 26364935, "17. ROD STEWART - Forever Young (Live ...
创建时间: 2024-11-08 19:09:45 大小:478.22 MB 文件数量:21 热度:2 最近下载:2025-01-27 04:10:03
    ... 1982).flac": 176938127, "17. ROD STEWART - Sailing (Live 1982). ... 1982).flac": 164968605, "01. ROD STEWART - The Stripper (Live ... 1982).flac": 5647953, "13. ROD STEWART - Gasoline Alley (Live ... 1982).flac": 151833786, "06. ROD STEWART - The Great Pretender (Live ...
创建时间: 2024-11-08 19:34:23 大小:2.49 GB 文件数量:23 热度:5 最近下载:2025-04-15 16:54:01
    ... .flac": 31979380, "The Best Of Rod Stewart.cue": 3282, "09 - You ... .flac": 25697670, "The Best Of Rod Stewart EAC Report.log": 4101 ... .com.txt": 47, "Rod Stewart - The Best Of Rod Stewart.m3u": 1335 ...
创建时间: 2024-11-10 18:17:22 大小:469.61 MB 文件数量:25 热度:6 最近下载:2025-01-25 22:06:02
    {"cover.jpg": 76085, "playlist.m3u8": 551, "12 - Silent Night.flac": 25344146, "16 - Silver Bells.flac": 22154367, "08 - Blue Christmas.flac": 21136168, "11 - We Three Kings.flac": 23992677, "13 - Auld Lang Syne.flac": 25610093, "04 - White Christmas.flac ...
创建时间: 2024-11-11 14:18:46 大小:346.12 MB 文件数量:18 热度:2 最近下载:2025-02-28 22:15:02
    {"Katie St Ives doesn't take a break while she is sucking on a thick rod [email protected]": 211219774}
创建时间: 2024-11-12 14:10:07 大小:201.43 MB 文件数量:1 热度:10 最近下载:2025-09-25 15:58:04
    ... , "110": 826797, "111": 2094475}, "rod serling and the twilight zone ... .mp4": 671286338, "rod serling and the twilight zone ... .ia.mp4": 671286338, "rod-serling-and-the-twilight-zone_meta ... 720p-hd.mp4": 148859347, "rod-serling-and-the-twilight-zone_meta ...
创建时间: 2024-11-16 12:31:49 大小:13.42 GB 文件数量:154 热度:2 最近下载:2025-01-18 10:01:49
    ... -hawk-western-1963-rory-calhoun-rod-cameron-ruta-lee_meta.xml": 2322 ... Hawk (Western 1963) Rory Calhoun, Rod Cameron & Ruta Lee.mp4": 963727099 ... -hawk-western-1963-rory-calhoun-rod-cameron-ruta-lee_meta.sqlite": 36864 ...
创建时间: 2024-11-17 08:32:48 大小:919.13 MB 文件数量:4 热度:10 最近下载:2025-09-18 21:39:15
    ... Luck.flac": 54663004}, "(2015) - Rod Stewart - Rod Stewart [16Bit-44.1kHz]": {"Folder ... Baby.flac": 16020761}, "(1969) - Rod Stewart - The Rod Stewart Album [24Bit-192kHz ... Matilda).flac": 26287529}, "(2012) - Rod Stewart - Sensational Rod Stewart [16Bit-44.1kHz ...
创建时间: 2024-11-19 18:12:19 大小:48.39 GB 文件数量:2499 热度:2 最近下载:2025-01-19 06:13:11
    ... 1984).flac": 48105175, "14. Rod Stewart - Sailing (Live at ... 1991).flac": 30989375, "57. Rod Stewart - Cigarettes and Alcohol ( ... 1976).flac": 33264142, "33. Rod Stewart - Infatuation (Live at ... 1989).flac": 30994771, "52. Rod Stewart - Handbags and Gladrags ( ...
创建时间: 2024-11-21 18:22:21 大小:1.82 GB 文件数量:62 热度:2 最近下载:2025-02-23 15:57:01
    {"INFO.nfo": 1158, "cover.jpg": 54584, "06. Auld Lang Syne.flac": 25616735, "02. Winter Wonderland.flac": 16373921, "04. Merry Christmas, Baby.flac": 26976466, "01. Santa Claus Is Coming To Town.flac": 18450298, "03. Have Yourself A Merry Little Christmas. ...
创建时间: 2024-11-27 14:59:22 大小:126.27 MB 文件数量:8 热度:2 最近下载:2025-01-26 17:23:05